This demonstration page uses our WeatherBlox Daily Observations layout. Learn more.

38.88101, -77.10428

Hourly Observations for August 17, 2018

Temp ( °F °C ) Dew Point ( °F °C ) Humidity (%) Winds ( mph kmh ) Pressure ( in mb ) Visibility ( mi km ) Precip ( " mm )
12:52 am 00:52 Mostly Clear 80 26.7 74 23.3 82 82 S 6 9 30.11 1020 10 16.0934 0 0
1:52 am 01:52 Partly Cloudy 80 26.7 74 23.3 82 82 S 7 11 30.09 1019 10 16.0934 0 0
2:52 am 02:52 Partly Cloudy 80 26.7 74 23.3 82 82 S 6 9 30.09 1019 10 16.0934 0 0
3:52 am 03:52 Mostly Cloudy 79 26.1 74 23.3 85 85 S 7 11 30.09 1019 10 16.0934 0 0
4:52 am 04:52 Mostly Cloudy 78 25.6 73 22.8 85 85 SSW 5 7 30.08 1019 10 16.0934 0 0
5:52 am 05:52 Partly Cloudy 78 25.6 73 22.8 85 85 S 6 9 30.08 1019 10 16.0934 0 0
6:52 am 06:52 Mostly Cloudy 78 25.6 72 22.2 82 82 SSW 5 7 30.09 1019 9 14.48406 0 0
7:52 am 07:52 Mostly Cloudy 79 26.1 73 22.8 82 82 S 7 11 30.09 1019 10 16.0934 0 0
8:52 am 08:52 Mostly Cloudy 80 26.7 74 23.3 82 82 S 8 13 30.07 1018 9 14.48406 0 0
9:52 am 09:52 Mostly Cloudy 82 27.8 74 23.3 77 77 S 8 13 30.07 1018 10 16.0934 0 0
10:52 am 10:52 Mostly Cloudy 86 30 75 23.9 70 70 S 8 13 30.06 1018 10 16.0934 0 0
11:52 am 11:52 Cloudy 87 30.6 75 23.9 67 67 S 10 17 30.05 1018 10 16.0934 0 0
12:52 pm 12:52 Mostly Cloudy 89 31.7 75 23.9 63 63 S 12 19 30.03 1017 10 16.0934 0 0
1:52 pm 13:52 Mostly Cloudy 93 33.9 74 23.3 54 54 S 14 22 30.01 1016 10 16.0934 0 0
2:52 pm 14:52 Mostly Cloudy 93 33.9 73 22.8 52 52 S 14 22 29.99 1016 10 16.0934 0 0
3:52 pm 15:52 Cloudy 93 33.9 73 22.8 52 52 S 14 22 29.98 1015 10 16.0934 0 0
4:52 pm 16:52 Cloudy 91 32.8 72 22.2 54 54 S 12 19 29.97 1015 10 16.0934 0 0
5:52 pm 17:52 Cloudy 88 31.1 74 23.3 63 63 S 10 17 29.97 1015 10 16.0934 0 0
6:32 pm 18:32 Cloudy 87 30.6 74 23.3 65 65 SSW 10 17 29.97 1015 10 16.0934 0 0
6:52 pm 18:52 Cloudy 88 31.1 72 22.2 59 59 WSW 10 17 29.97 1015 10 16.0934 0 0
7:52 pm 19:52 Cloudy with Light Rain 82 27.8 70 21.1 67 67 SW 8 13 29.96 1015 10 16.0934 0 0.0254
8:52 pm 20:52 Cloudy 80 26.7 69 20.6 69 69 SSW 7 11 29.96 1015 10 16.0934 0 0.0254
9:52 pm 21:52 Mostly Cloudy 81 27.2 69 20.6 67 67 WSW 3 6 29.96 1015 10 16.0934 0 0
10:52 pm 22:52 Cloudy 81 27.2 69 20.6 67 67 WSW 3 6 29.96 1014 10 16.0934 0 0
11:52 pm 23:52 Mostly Cloudy 79 26.1 70 21.1 74 74 WNW 7 11 29.96 1015 10 16.0934 0 0

Powered by AerisWeather